Location: American Medical Response
(33.3472°N, 96.5511°W)
Time: 14:03:25
(UTC+00:00)

OAO 2 Rocket - Pass Details

Date: 08 December 2021
Orbit: 675 x 746 km, 35.0° (Epoch: 28 January)

Event Time Altitude Azimuth Distance (km) Brightness Sun altitude
Exits shadow 12:04:52 15° 248° (WSW) 1,905 5.1 -14.9°
Maximum altitude 12:09:14 77° 164° (SSE) 740 3.5 -14.1°
Drops below altitude 10° 12:14:21 10° 79° (ENE) 2,177 6.8 -13.0°
Sets 12:16:44 0° 77° (ENE) 3,085 7.7 -12.6°
